This is the latest recevied weather packets stored in our database for station/object N3AVN. If no packets are shown the sender has not sent any weather packets the latest 10 day(s).
| Time | Temp. | Humidity | Pressure | Rain* | Wind** | Luminosity | Snow |
|---|---|---|---|---|---|---|---|
| 1777599385 | 10° C | 84% | 1007.3 hPa | 0 mm | - | 0 W/m² | - |
| 1777599083 | 9.44° C | 86% | 1007.3 hPa | 0 mm | - | 0 W/m² | - |
| 1777598780 | 9.44° C | 86% | 1007.4 hPa | 0 mm | - | 0 W/m² | - |
| 1777598475 | 10° C | 86% | 1007.3 hPa | 0 mm | - | 0 W/m² | - |
| 1777598174 | 10° C | 86% | 1007 hPa | 0 mm | - | 0 W/m² | - |
| 1777597869 | 10.56° C | 84% | 1007.1 hPa | 0 mm | - | 0 W/m² | - |
| 1777597569 | 10.56° C | 82% | 1007.2 hPa | 0 mm | - | 0 W/m² | - |
| 1777597264 | 10.56° C | 83% | 1007 hPa | 0 mm | - | 0 W/m² | - |
| 1777596959 | 10.56° C | 84% | 1007.1 hPa | 0 mm | - | 0 W/m² | - |
| 1777596656 | 11.11° C | 85% | 1006.8 hPa | 0 mm | - | 0 W/m² | - |
| 1777596353 | 10.56° C | 85% | 1006.5 hPa | 0 mm | - | 0 W/m² | - |
| 1777596051 | 10.56° C | 89% | 1006.6 hPa | 0 mm | - | 0 W/m² | - |
| 1777595751 | 10.56° C | 90% | 1006.6 hPa | 0 mm | - | 0 W/m² | - |
| 1777595447 | 10.56° C | 90% | 1006.5 hPa | 0 mm | - | 0 W/m² | - |
| 1777595143 | 11.11° C | 90% | 1006.8 hPa | 0 mm | - | 0 W/m² | - |
| 1777594839 | 11.11° C | 90% | 1006.4 hPa | 0 mm | - | 0 W/m² | - |
| 1777594536 | 11.11° C | 90% | 1006.1 hPa | 0 mm | - | 0 W/m² | - |
| 1777594232 | 11.11° C | 89% | 1006.3 hPa | 0 mm | - | 0 W/m² | - |
| 1777593928 | 11.11° C | 88% | 1006 hPa | 0 mm | - | 0 W/m² | - |
| 1777593625 | 11.11° C | 86% | 1006.2 hPa | 0 mm | - | 0 W/m² | - |
| 1777593320 | 11.67° C | 86% | 1005.8 hPa | 0 mm | - | 0 W/m² | - |
| 1777593015 | 11.67° C | 86% | 1005.7 hPa | 0 mm | - | 0 W/m² | - |
| 1777592709 | 11.67° C | 86% | 1005.9 hPa | 0 mm | - | 0 W/m² | - |
| 1777592405 | 12.22° C | 86% | 1005.9 hPa | 0 mm | - | 1 W/m² | - |
| 1777592095 | 12.22° C | 85% | 1005.8 hPa | 0 mm | - | 1 W/m² | - |
* Rain latest hour (hover to see other rain measurements)
** Current wind speed in m/s (hover to see current wind gust speed)